Location: Stara Lesna
(49.1528°N, 20.2911°E)
Time: 04:35:11
(UTC+02:00)

CZ-2D R/B - Pass Details

Date: 21 September 2019
Orbit: 791 x 846 km, 98.6° (Epoch: 16 October)

Event Time Altitude Azimuth Distance (km) Brightness Sun altitude
Rises 02:40:59 0° 13° (NNE) 3,337 6.2 -32.8°
Reaches altitude 10° 02:43:20 10° 13° (NNE) 2,394 5.2 -32.6°
Enters shadow 02:46:59 46° 8° (N) 1,075 2.9 -32.2°
